Voltar ao catálogo

STARLINK-32194

AtivoComunicaçõesVLEO
NORAD 60315·PAYLOAD·🇺🇸 United States

Lançado Jul 28, 2024 de Vandenberg Space Force Base

Loading…

Próximas Passagens (próximas 24 horas)

TLE

AtualizadoSource: CelesTrak SupGP

Época: Sep 15, 2026, 02:22 UTC

1 60315C 24133Q   26258.09909722  .00033482  00000+0  98931-3 0  2589
2 60315  53.1558 134.7385 0001116  94.1382 335.8321 15.34371769    13

Acompanhe STARLINK-32194 em tempo real com AllMySat

Download on the App Store